Location: Driftpile
(55.3500°N, 115.7667°W)
Time: 07:38:21
(UTC+00:00)

N. Korean satellite - Pass Details

Date: 27 November 2021
Orbit: 447 x 490 km, 97.3° (Epoch: 26 January)

Event Time Altitude Azimuth Distance (km) Brightness Sun altitude
Rises 12:50:23 0° 18° (NNE) 2,501 10.3 -23.0°
Reaches altitude 10° 12:52:30 10° 24° (NNE) 1,613 9.4 -22.7°
Maximum altitude 12:55:51 47° 99° (E) 618 7.4 -22.2°
Drops below altitude 10° 12:59:08 10° 175° (S) 1,581 9.3 -21.8°
Sets 13:01:12 0° 181° (S) 2,445 10.2 -21.5°
